"Period start","avg(HW err(1)/warn(2) (#))","avg(Visibility (m))","avg(Weather code (#))","avg(Precip intensity (mm/h))","min(HW err(1)/warn(2) (#))","max(HW err(1)/warn(2) (#))","std(HW err(1)/warn(2) (#))","med(HW err(1)/warn(2) (#))","min(Visibility (m))","max(Visibility (m))","std(Visibility (m))","med(Visibility (m))","min(Weather code (#))","max(Weather code (#))","std(Weather code (#))","med(Weather code (#))","min(Precip intensity (mm/h))","max(Precip intensity (mm/h))","std(Precip intensity (mm/h))","med(Precip intensity (mm/h))"
2014-06-09 00:00:00,0,41429,0,0.00,0,0,0,0,31562,50000,6006,40992,0,0,0,0,0.00,0.00,0.00,0.00
2014-06-09 00:10:00,0,40472,0,0.00,0,0,0,0,24759,50000,8240,40272,0,0,0,0,0.00,0.00,0.00,0.00
2014-06-09 00:20:00,0,38595,0,0.00,0,0,0,0,24056,43799,6187,42230,0,0,0,0,0.00,0.00,0.00,0.00
2014-06-09 00:30:00,0,38426,0,0.00,0,0,0,0,27879,50000,7327,39538,0,0,0,0,0.00,0.00,0.00,0.00
2014-06-09 00:40:00,0,36717,0,0.00,0,0,0,0,27666,45993,6128,37268,0,0,0,0,0.00,0.00,0.00,0.00
2014-06-09 00:50:00,0,37909,0,0.00,0,0,0,0,27634,50000,5939,37972,0,0,0,0,0.00,0.00,0.00,0.00
2014-06-09 01:00:00,0,42902,0,0.00,0,0,0,0,21399,50000,10173,48954,0,0,0,0,0.00,0.00,0.00,0.00
2014-06-09 01:10:00,0,35181,0,0.00,0,0,0,0,21123,48450,8062,35293,0,0,0,0,0.00,0.00,0.00,0.00
2014-06-09 01:20:00,0,37052,0,0.00,0,0,0,0,26137,50000,9083,35817,0,0,0,0,0.00,0.00,0.00,0.00
2014-06-09 01:30:00,0,42515,0,0.00,0,0,0,0,30719,50000,7316,44911,0,0,0,0,0.00,0.00,0.00,0.00
2014-06-09 01:40:00,0,41130,0,0.00,0,0,0,0,32919,50000,5179,40433,0,0,0,0,0.00,0.00,0.00,0.00
2014-06-09 01:50:00,0,39941,0,0.00,0,0,0,0,27742,50000,7905,42673,0,0,0,0,0.00,0.00,0.00,0.00
2014-06-09 02:00:00,0,45877,0,0.00,0,0,0,0,38090,50000,4025,46107,0,0,0,0,0.00,0.00,0.00,0.00
2014-06-09 02:10:00,0,43721,0,0.00,0,0,0,0,39325,50000,4268,42560,0,0,0,0,0.00,0.00,0.00,0.00
2014-06-09 02:20:00,0,42336,0,0.00,0,0,0,0,32722,50000,5485,42288,0,0,0,0,0.00,0.00,0.00,0.00
2014-06-09 02:30:00,0,43440,0,0.00,0,0,0,0,34760,50000,5611,43008,0,0,0,0,0.00,0.00,0.00,0.00
2014-06-09 02:40:00,0,38493,0,0.00,0,0,0,0,26396,48362,7383,39198,0,0,0,0,0.00,0.00,0.00,0.00
2014-06-09 02:50:00,0,48472,0,0.00,0,0,0,0,34966,50000,4503,50000,0,0,0,0,0.00,0.00,0.00,0.00
2014-06-09 03:00:00,0,46102,0,0.00,0,0,0,0,27819,50000,6616,50000,0,0,0,0,0.00,0.00,0.00,0.00
2014-06-09 03:10:00,0,40997,0,0.00,0,0,0,0,32285,50000,4995,40524,0,0,0,0,0.00,0.00,0.00,0.00
2014-06-09 03:20:00,0,45673,0,0.00,0,0,0,0,36752,50000,4395,45736,0,0,0,0,0.00,0.00,0.00,0.00
2014-06-09 03:30:00,0,45897,0,0.00,0,0,0,0,41837,50000,2940,45338,0,0,0,0,0.00,0.00,0.00,0.00
2014-06-09 03:40:00,0,45493,0,0.00,0,0,0,0,39800,50000,3869,45579,0,0,0,0,0.00,0.00,0.00,0.00
2014-06-09 03:50:00,0,45437,0,0.00,0,0,0,0,40725,50000,3125,46394,0,0,0,0,0.00,0.00,0.00,0.00
2014-06-09 04:00:00,0,48009,0,0.00,0,0,0,0,44557,50000,2103,48842,0,0,0,0,0.00,0.00,0.00,0.00
2014-06-09 04:10:00,0,47387,0,0.00,0,0,0,0,40489,50000,3544,50000,0,0,0,0,0.00,0.00,0.00,0.00
2014-06-09 04:20:00,0,49036,0,0.00,0,0,0,0,44961,50000,1687,50000,0,0,0,0,0.00,0.00,0.00,0.00
2014-06-09 04:30:00,0,49804,0,0.00,0,0,0,0,48903,50000,380,50000,0,0,0,0,0.00,0.00,0.00,0.00
2014-06-09 04:40:00,0,48022,0,0.00,0,0,0,0,41039,50000,2837,49366,0,0,0,0,0.00,0.00,0.00,0.00
2014-06-09 04:50:00,0,48123,0,0.00,0,0,0,0,37176,50000,3778,50000,0,0,0,0,0.00,0.00,0.00,0.00
2014-06-09 05:00:00,0,48185,0,0.00,0,0,0,0,41757,50000,2387,48888,0,0,0,0,0.00,0.00,0.00,0.00
2014-06-09 05:10:00,0,49949,0,0.00,0,0,0,0,49491,50000,153,50000,0,0,0,0,0.00,0.00,0.00,0.00
2014-06-09 05:20:00,0,49307,0,0.00,0,0,0,0,46050,50000,1186,49922,0,0,0,0,0.00,0.00,0.00,0.00
2014-06-09 05:30:00,0,49381,0,0.00,0,0,0,0,46957,50000,1014,50000,0,0,0,0,0.00,0.00,0.00,0.00
2014-06-09 05:40:00,0,47555,0,0.00,0,0,0,0,41202,50000,3181,49852,0,0,0,0,0.00,0.00,0.00,0.00
2014-06-09 05:50:00,0,49073,0,0.00,0,0,0,0,44545,50000,1687,50000,0,0,0,0,0.00,0.00,0.00,0.00
2014-06-09 06:00:00,0,41889,0,0.00,0,0,0,0,32172,50000,5528,42757,0,0,0,0,0.00,0.00,0.00,0.00
2014-06-09 06:10:00,0,46935,0,0.00,0,0,0,0,39214,50000,3722,49326,0,0,0,0,0.00,0.00,0.00,0.00
2014-06-09 06:20:00,0,47252,0,0.00,0,0,0,0,42922,50000,2861,48086,0,0,0,0,0.00,0.00,0.00,0.00
2014-06-09 06:30:00,0,49965,0,0.00,0,0,0,0,49722,50000,83,50000,0,0,0,0,0.00,0.00,0.00,0.00
2014-06-09 06:40:00,0,49356,0,0.00,0,0,0,0,45667,50000,1281,50000,0,0,0,0,0.00,0.00,0.00,0.00
2014-06-09 06:50:00,0,49739,0,0.00,0,0,0,0,48055,50000,595,50000,0,0,0,0,0.00,0.00,0.00,0.00
2014-06-09 07:00:00,0,47967,0,0.00,0,0,0,0,40240,50000,3836,49977,0,0,0,0,0.00,0.00,0.00,0.00
2014-06-09 07:10:00,0,42202,0,0.00,0,0,0,0,31887,50000,7133,44268,0,0,0,0,0.00,0.00,0.00,0.00
2014-06-09 07:20:00,0,49461,0,0.00,0,0,0,0,46613,50000,1030,50000,0,0,0,0,0.00,0.00,0.00,0.00
2014-06-09 07:30:00,0,45973,0,0.00,0,0,0,0,37969,50000,4503,47942,0,0,0,0,0.00,0.00,0.00,0.00
2014-06-09 07:40:00,0,49963,0,0.00,0,0,0,0,49626,50000,112,50000,0,0,0,0,0.00,0.00,0.00,0.00
2014-06-09 07:50:00,0,46694,0,0.00,0,0,0,0,34835,50000,4850,49242,0,0,0,0,0.00,0.00,0.00,0.00
2014-06-09 08:00:00,0,47665,0,0.00,0,0,0,0,40406,50000,3519,49686,0,0,0,0,0.00,0.00,0.00,0.00
2014-06-09 08:10:00,0,48100,0,0.00,0,0,0,0,43349,50000,2107,48504,0,0,0,0,0.00,0.00,0.00,0.00
2014-06-09 08:20:00,0,47291,0,0.00,0,0,0,0,42147,50000,2383,47922,0,0,0,0,0.00,0.00,0.00,0.00
2014-06-09 08:30:00,0,48548,0,0.00,0,0,0,0,41668,50000,2561,50000,0,0,0,0,0.00,0.00,0.00,0.00
2014-06-09 08:40:00,0,25460,49,1.81,0,0,0,0,13944,50000,12811,21155,0,61,24,61,0.00,5.20,2.06,1.10
2014-06-09 08:50:00,0,44228,0,0.00,0,0,0,0,30492,50000,6424,46006,0,0,0,0,0.00,0.00,0.00,0.00
2014-06-09 09:00:00,0,50000,0,0.00,0,0,0,0,50000,50000,0,50000,0,0,0,0,0.00,0.00,0.00,0.00
2014-06-09 09:10:00,0,47885,38,0.06,0,0,0,0,42045,50000,2743,49346,0,61,25,51,0.00,0.25,0.09,0.03
2014-06-09 09:20:00,0,50000,11,0.00,0,0,0,0,50000,50000,0,50000,0,61,23,0,0.00,0.00,0.00,0.00
2014-06-09 09:30:00,0,45015,37,0.21,0,0,0,0,31536,50000,7257,50000,0,61,30,61,0.00,1.45,0.43,0.00
2014-06-09 09:40:00,0,49946,0,0.00,0,0,0,0,49461,50000,162,50000,0,0,0,0,0.00,0.00,0.00,0.00
2014-06-09 09:50:00,0,49424,0,0.00,0,0,0,0,45120,50000,1452,50000,0,0,0,0,0.00,0.00,0.00,0.00
2014-06-09 10:00:00,0,46948,0,0.00,0,0,0,0,35258,50000,4892,49611,0,0,0,0,0.00,0.00,0.00,0.00
2014-06-09 10:10:00,0,37630,37,0.88,0,0,0,0,18387,50000,10999,37399,0,61,30,61,0.00,3.40,1.22,0.15
2014-06-09 10:20:00,0,49498,0,0.00,0,0,0,0,46383,50000,1119,50000,0,0,0,0,0.00,0.00,0.00,0.00
2014-06-09 10:30:00,0,45172,0,0.00,0,0,0,0,37889,50000,3479,45122,0,0,0,0,0.00,0.00,0.00,0.00
2014-06-09 10:40:00,0,42705,0,0.00,0,0,0,0,34931,49747,5291,44712,0,0,0,0,0.00,0.00,0.00,0.00
2014-06-09 10:50:00,0,44053,0,0.00,0,0,0,0,33450,50000,5468,44260,0,0,0,0,0.00,0.00,0.00,0.00
2014-06-09 11:00:00,0,38539,0,0.00,0,0,0,0,32136,50000,5530,37264,0,0,0,0,0.00,0.00,0.00,0.00
2014-06-09 11:10:00,0,31870,0,0.00,0,0,0,0,21892,40689,5693,33377,0,0,0,0,0.00,0.00,0.00,0.00
2014-06-09 11:20:00,0,37365,0,0.00,0,0,0,0,19979,50000,9609,39282,0,0,0,0,0.00,0.00,0.00,0.00
2014-06-09 11:30:00,0,39275,0,0.00,0,0,0,0,27952,50000,8538,42347,0,0,0,0,0.00,0.00,0.00,0.00
2014-06-09 11:40:00,1,37934,0,0.00,0,2,1,1,31378,47698,7038,34726,0,0,0,0,0.00,0.00,0.00,0.00
2014-06-09 11:50:00,1,31478,10,0.00,0,2,1,0,18446,50000,11253,28386,10,10,0,10,0.00,0.00,0.00,0.00
2014-06-09 12:00:00,0,41771,3,0.00,0,0,0,0,31555,50000,6374,42046,0,10,5,0,0.00,0.00,0.00,0.00
2014-06-09 12:10:00,0,46227,0,0.00,0,0,0,0,32277,50000,6643,50000,0,0,0,0,0.00,0.00,0.00,0.00
2014-06-09 12:20:00,0,48990,0,0.00,0,0,0,0,44001,50000,1960,50000,0,0,0,0,0.00,0.00,0.00,0.00
2014-06-09 12:30:00,0,47196,0,0.00,0,0,0,0,41420,50000,2585,47661,0,0,0,0,0.00,0.00,0.00,0.00
2014-06-09 12:40:00,0,47919,0,0.00,0,0,0,0,43374,50000,2631,49660,0,0,0,0,0.00,0.00,0.00,0.00
2014-06-09 12:50:00,0,48900,0,0.00,0,0,0,0,44746,50000,1684,50000,0,0,0,0,0.00,0.00,0.00,0.00
2014-06-09 13:00:00,0,49513,0,0.00,0,0,0,0,45520,50000,1336,50000,0,0,0,0,0.00,0.00,0.00,0.00
2014-06-09 13:10:00,0,49129,0,0.00,0,0,0,0,47250,50000,1066,49734,0,0,0,0,0.00,0.00,0.00,0.00
2014-06-09 13:20:00,0,50000,0,0.00,0,0,0,0,50000,50000,0,50000,0,0,0,0,0.00,0.00,0.00,0.00
2014-06-09 13:30:00,0,49810,0,0.00,0,0,0,0,48575,50000,435,50000,0,0,0,0,0.00,0.00,0.00,0.00
2014-06-09 13:40:00,0,49598,0,0.00,0,0,0,0,46480,50000,1050,50000,0,0,0,0,0.00,0.00,0.00,0.00
2014-06-09 13:50:00,0,50000,0,0.00,0,0,0,0,50000,50000,0,50000,0,0,0,0,0.00,0.00,0.00,0.00
2014-06-09 14:00:00,0,49937,0,0.00,0,0,0,0,49371,50000,189,50000,0,0,0,0,0.00,0.00,0.00,0.00
2014-06-09 14:10:00,0,49695,0,0.00,0,0,0,0,47278,50000,812,50000,0,0,0,0,0.00,0.00,0.00,0.00
2014-06-09 14:20:00,0,50000,0,0.00,0,0,0,0,50000,50000,0,50000,0,0,0,0,0.00,0.00,0.00,0.00
2014-06-09 14:30:00,0,49796,0,0.00,0,0,0,0,47964,50000,611,50000,0,0,0,0,0.00,0.00,0.00,0.00
2014-06-09 14:40:00,0,49877,0,0.00,0,0,0,0,48766,50000,370,50000,0,0,0,0,0.00,0.00,0.00,0.00
2014-06-09 14:50:00,0,50000,0,0.00,0,0,0,0,50000,50000,0,50000,0,0,0,0,0.00,0.00,0.00,0.00
2014-06-09 15:00:00,0,50000,0,0.00,0,0,0,0,50000,50000,0,50000,0,0,0,0,0.00,0.00,0.00,0.00
2014-06-09 15:10:00,0,50000,0,0.00,0,0,0,0,50000,50000,0,50000,0,0,0,0,0.00,0.00,0.00,0.00
2014-06-09 15:20:00,0,50000,0,0.00,0,0,0,0,50000,50000,0,50000,0,0,0,0,0.00,0.00,0.00,0.00
2014-06-09 15:30:00,0,50000,0,0.00,0,0,0,0,50000,50000,0,50000,0,0,0,0,0.00,0.00,0.00,0.00
2014-06-09 15:40:00,0,49993,0,0.00,0,0,0,0,49928,50000,22,50000,0,0,0,0,0.00,0.00,0.00,0.00
2014-06-09 15:50:00,0,49800,0,0.00,0,0,0,0,48376,50000,488,50000,0,0,0,0,0.00,0.00,0.00,0.00
2014-06-09 16:00:00,0,50000,0,0.00,0,0,0,0,50000,50000,0,50000,0,0,0,0,0.00,0.00,0.00,0.00
2014-06-09 16:10:00,0,50000,0,0.00,0,0,0,0,50000,50000,0,50000,0,0,0,0,0.00,0.00,0.00,0.00
2014-06-09 16:20:00,0,50000,0,0.00,0,0,0,0,50000,50000,0,50000,0,0,0,0,0.00,0.00,0.00,0.00
2014-06-09 16:30:00,0,50000,0,0.00,0,0,0,0,50000,50000,0,50000,0,0,0,0,0.00,0.00,0.00,0.00
2014-06-09 16:40:00,0,49596,0,0.00,0,0,0,0,47405,50000,849,50000,0,0,0,0,0.00,0.00,0.00,0.00
2014-06-09 16:50:00,0,49838,0,0.00,0,0,0,0,48380,50000,486,50000,0,0,0,0,0.00,0.00,0.00,0.00
2014-06-09 17:00:00,0,50000,0,0.00,0,0,0,0,50000,50000,0,50000,0,0,0,0,0.00,0.00,0.00,0.00
2014-06-09 17:10:00,0,50000,0,0.00,0,0,0,0,50000,50000,0,50000,0,0,0,0,0.00,0.00,0.00,0.00
2014-06-09 17:20:00,0,50000,0,0.00,0,0,0,0,50000,50000,0,50000,0,0,0,0,0.00,0.00,0.00,0.00
2014-06-09 17:30:00,0,49767,0,0.00,0,0,0,0,48520,50000,486,50000,0,0,0,0,0.00,0.00,0.00,0.00
2014-06-09 17:40:00,0,49952,0,0.00,0,0,0,0,49579,50000,126,50000,0,0,0,0,0.00,0.00,0.00,0.00
2014-06-09 17:50:00,0,49453,0,0.00,0,0,0,0,47170,50000,1047,50000,0,0,0,0,0.00,0.00,0.00,0.00
2014-06-09 18:00:00,0,49784,0,0.00,0,0,0,0,48741,50000,391,50000,0,0,0,0,0.00,0.00,0.00,0.00
2014-06-09 18:10:00,0,49856,0,0.00,0,0,0,0,48556,50000,433,50000,0,0,0,0,0.00,0.00,0.00,0.00
2014-06-09 18:20:00,0,49576,0,0.00,0,0,0,0,47946,50000,719,50000,0,0,0,0,0.00,0.00,0.00,0.00
2014-06-09 18:30:00,0,49694,0,0.00,0,0,0,0,47952,50000,654,50000,0,0,0,0,0.00,0.00,0.00,0.00
2014-06-09 18:40:00,0,50000,0,0.00,0,0,0,0,50000,50000,0,50000,0,0,0,0,0.00,0.00,0.00,0.00
2014-06-09 18:50:00,0,49618,0,0.00,0,0,0,0,46185,50000,1144,50000,0,0,0,0,0.00,0.00,0.00,0.00
2014-06-09 19:00:00,0,49652,0,0.00,0,0,0,0,47879,50000,716,50000,0,0,0,0,0.00,0.00,0.00,0.00
2014-06-09 19:10:00,0,49840,0,0.00,0,0,0,0,48821,50000,362,50000,0,0,0,0,0.00,0.00,0.00,0.00
2014-06-09 19:20:00,0,49487,0,0.00,0,0,0,0,47523,50000,853,50000,0,0,0,0,0.00,0.00,0.00,0.00
2014-06-09 19:30:00,0,45823,0,0.00,0,0,0,0,35877,50000,5034,48778,0,0,0,0,0.00,0.00,0.00,0.00
2014-06-09 19:40:00,0,49530,0,0.00,0,0,0,0,47286,50000,927,50000,0,0,0,0,0.00,0.00,0.00,0.00
2014-06-09 19:50:00,0,49672,0,0.00,0,0,0,0,47900,50000,642,50000,0,0,0,0,0.00,0.00,0.00,0.00
2014-06-09 20:00:00,0,49217,0,0.00,0,0,0,0,46796,50000,998,49649,0,0,0,0,0.00,0.00,0.00,0.00
2014-06-09 20:10:00,0,49947,0,0.00,0,0,0,0,49706,50000,105,50000,0,0,0,0,0.00,0.00,0.00,0.00
2014-06-09 20:20:00,0,49275,0,0.00,0,0,0,0,45248,50000,1535,50000,0,0,0,0,0.00,0.00,0.00,0.00
2014-06-09 20:30:00,0,48828,0,0.00,0,0,0,0,44767,50000,1944,50000,0,0,0,0,0.00,0.00,0.00,0.00
2014-06-09 20:40:00,0,49510,0,0.00,0,0,0,0,47112,50000,888,50000,0,0,0,0,0.00,0.00,0.00,0.00
2014-06-09 20:50:00,0,48659,0,0.00,0,0,0,0,42852,50000,2315,50000,0,0,0,0,0.00,0.00,0.00,0.00
2014-06-09 21:00:00,0,49056,0,0.00,0,0,0,0,44078,50000,1712,49616,0,0,0,0,0.00,0.00,0.00,0.00
2014-06-09 21:10:00,0,49411,0,0.00,0,0,0,0,45971,50000,1205,50000,0,0,0,0,0.00,0.00,0.00,0.00
2014-06-09 21:20:00,0,48872,0,0.00,0,0,0,0,44458,50000,1908,50000,0,0,0,0,0.00,0.00,0.00,0.00
2014-06-09 21:30:00,0,49804,0,0.00,0,0,0,0,48649,50000,425,50000,0,0,0,0,0.00,0.00,0.00,0.00
2014-06-09 21:40:00,0,47662,0,0.00,0,0,0,0,40554,50000,3159,49600,0,0,0,0,0.00,0.00,0.00,0.00
2014-06-09 21:50:00,0,47836,0,0.00,0,0,0,0,39432,50000,3556,50000,0,0,0,0,0.00,0.00,0.00,0.00
2014-06-09 22:00:00,0,47789,0,0.00,0,0,0,0,42910,50000,2662,49280,0,0,0,0,0.00,0.00,0.00,0.00
2014-06-09 22:10:00,0,47603,0,0.00,0,0,0,0,38760,50000,3780,50000,0,0,0,0,0.00,0.00,0.00,0.00
2014-06-09 22:20:00,0,47391,0,0.00,0,0,0,0,40398,50000,3347,49777,0,0,0,0,0.00,0.00,0.00,0.00
2014-06-09 22:30:00,0,49126,0,0.00,0,0,0,0,45960,50000,1333,50000,0,0,0,0,0.00,0.00,0.00,0.00
2014-06-09 22:40:00,0,47517,0,0.00,0,0,0,0,41477,50000,2963,48672,0,0,0,0,0.00,0.00,0.00,0.00
2014-06-09 22:50:00,0,47480,0,0.00,0,0,0,0,42962,50000,2371,48133,0,0,0,0,0.00,0.00,0.00,0.00
2014-06-09 23:00:00,0,48068,0,0.00,0,0,0,0,44446,50000,1924,48406,0,0,0,0,0.00,0.00,0.00,0.00
2014-06-09 23:10:00,0,47403,0,0.00,0,0,0,0,43910,50000,2524,47651,0,0,0,0,0.00,0.00,0.00,0.00
2014-06-09 23:20:00,0,44258,0,0.00,0,0,0,0,36376,50000,4733,44744,0,0,0,0,0.00,0.00,0.00,0.00
2014-06-09 23:30:00,0,43118,0,0.00,0,0,0,0,34262,50000,5279,43541,0,0,0,0,0.00,0.00,0.00,0.00
2014-06-09 23:40:00,0,46330,0,0.00,0,0,0,0,40308,50000,3083,47100,0,0,0,0,0.00,0.00,0.00,0.00
2014-06-09 23:50:00,0,41001,0,0.00,0,0,0,0,32731,47834,4858,42363,0,0,0,0,0.00,0.00,0.00,0.00
